This demonstration page uses our WeatherBlox Daily Observations layout. Learn more.

Hourly Observations for March 9, 2019

Temp ( °F °C ) Dew Point ( °F °C ) Humidity (%) Winds ( mph kmh ) Pressure ( in mb ) Visibility ( mi km ) Precip ( " mm )
12:15 am 00:15 Cloudy 32 0 32 0 100 100 Calm 30.27 1025 1.25 2.01168 0 0
12:35 am 00:35 Cloudy 32 0 32 0 100 100 Calm 30.27 1025 1 1.609344 0 0
12:55 am 00:55 Cloudy 32 0 32 0 100 100 Calm 30.27 1025 1 1.609344 0 0
1:15 am 01:15 Cloudy 32 0 32 0 100 100 Calm 30.27 1025 0.75 1.207008 0 0
1:35 am 01:35 Cloudy 32 0 32 0 100 100 Calm 30.27 1025 0.75 1.207008 0 0
1:55 am 01:55 Cloudy 32 0 32 0 100 100 Calm 30.27 1025 0.75 1.207008 0 0
2:15 am 02:15 Cloudy 32 0 32 0 100 100 Calm 30.27 1025 0.75 1.207008 0 0
2:35 am 02:35 Cloudy 32 0 32 0 100 100 NNE 3 6 30.27 1025 1 1.609344 0 0
2:55 am 02:55 Cloudy 32 0 32 0 100 100 NNE 5 7 30.27 1025 0.75 1.207008 0 0
3:15 am 03:15 Cloudy 32 0 32 0 100 100 NNE 3 6 30.27 1025 1 1.609344 0 0
3:35 am 03:35 Cloudy 32 0 32 0 100 100 NNE 5 7 30.27 1025 1 1.609344 0 0
3:55 am 03:55 Cloudy 32 0 32 0 100 100 NNE 5 7 30.27 1025 1.5 2.414016 0 0
4:15 am 04:15 Cloudy 32 0 32 0 100 100 Calm 30.27 1025 1.75 2.816352 0 0
4:35 am 04:35 Cloudy 32 0 32 0 100 100 NNE 3 6 30.3 1026 2 3.218688 0 0
4:55 am 04:55 Cloudy 32 0 32 0 100 100 Calm 30.3 1026 2 3.218688 0 0
5:15 am 05:15 Cloudy 32 0 32 0 100 100 Calm 30.3 1026 2 3.218688 0 0
5:35 am 05:35 Cloudy 32 0 32 0 100 100 Calm 30.3 1026 2 3.218688 0 0
5:55 am 05:55 Cloudy 32 0 32 0 100 100 Calm 30.3 1026 2.5 4.02336 0 0
6:15 am 06:15 Cloudy 32 0 32 0 100 100 NE 5 7 30.3 1026 3 4.828032 0 0
6:35 am 06:35 Cloudy 32 0 32 0 100 100 Calm 30.3 1026 3 4.828032 0 0
6:55 am 06:55 Cloudy 32 0 32 0 100 100 Calm 30.33 1027 1.75 2.816352 0 0
7:15 am 07:15 Cloudy 32 0 32 0 100 100 Calm 30.33 1027 2 3.218688 0 0
7:35 am 07:35 Cloudy 32 0 32 0 100 100 Calm 30.33 1027 2.5 4.02336 0 0
7:55 am 07:55 Cloudy 32 0 32 0 100 100 N 3 6 30.33 1027 2.5 4.02336 0 0
8:15 am 08:15 Cloudy 32 0 32 0 100 100 Calm 30.33 1027 3 4.828032 0 0
8:35 am 08:35 Cloudy 32 0 32 0 100 100 NNE 3 6 30.33 1027 5 8.04672 0 0
8:55 am 08:55 Cloudy 34 1 32 0 93 93 NE 3 6 30.36 1028 5 8.04672 0 0
9:15 am 09:15 Cloudy 34 1 32 0 93 93 Calm 30.36 1028 5 8.04672 0 0
9:35 am 09:35 Cloudy 34 1 32 0 93 93 Calm 30.36 1028 7 11.265408 0 0
9:55 am 09:55 Cloudy 36 2 32 0 87 87 Calm 30.36 1028 7 11.265408 0 0
10:15 am 10:15 Cloudy 36 2 34 1 93 93 Calm 30.36 1028 10 16.09344 0 0
10:35 am 10:35 Cloudy 36 2 34 1 93 93 NE 5 7 30.36 1028 10 16.09344 0 0
10:55 am 10:55 Cloudy 36 2 34 1 93 93 ENE 3 6 30.36 1028 10 16.09344 0 0
11:15 am 11:15 Cloudy 36 2 34 1 93 93 NE 5 7 30.36 1028 7 11.265408 0 0
11:35 am 11:35 Cloudy 36 2 34 1 93 93 Calm 30.36 1028 7 11.265408 0 0
11:55 am 11:55 Cloudy 37 3 34 1 87 87 ENE 5 7 30.36 1028 7 11.265408 0 0
12:15 pm 12:15 Cloudy 37 3 34 1 87 87 E 3 6 30.36 1028 10 16.09344 0 0
12:35 pm 12:35 Cloudy 37 3 34 1 87 87 Calm 30.36 1028 10 16.09344 0 0
12:55 pm 12:55 Cloudy 37 3 34 1 87 87 ENE 5 7 30.33 1027 10 16.09344 0 0
1:15 pm 13:15 Cloudy 37 3 34 1 87 87 E 3 6 30.33 1027 10 16.09344 0 0
1:35 pm 13:35 Cloudy 37 3 34 1 87 87 ESE 5 7 30.33 1027 10 16.09344 0 0
1:55 pm 13:55 Cloudy 37 3 34 1 87 87 SSW 6 9 30.33 1027 10 16.09344 0 0
2:15 pm 14:15 Cloudy 37 3 34 1 87 87 S 5 7 30.33 1027 10 16.09344 0 0
2:35 pm 14:35 Cloudy 37 3 34 1 87 87 S 5 7 30.33 1027 10 16.09344 0 0
2:55 pm 14:55 Cloudy 37 3 36 2 93 93 SSW 7 11 30.33 1027 10 16.09344 0 0
3:15 pm 15:15 Cloudy 37 3 36 2 93 93 Calm 30.33 1027 10 16.09344 0 0
3:35 pm 15:35 Cloudy 39 4 34 1 81 81 Calm 30.33 1027 10 16.09344 0 0
3:55 pm 15:55 Cloudy 39 4 34 1 81 81 Calm 30.33 1027 10 16.09344 0 0
4:15 pm 16:15 Cloudy 39 4 34 1 81 81 SE 5 7 30.33 1027 10 16.09344 0 0
4:35 pm 16:35 Cloudy 39 4 36 2 87 87 Calm 30.33 1027 10 16.09344 0 0
4:55 pm 16:55 Cloudy 39 4 36 2 87 87 E 3 6 30.33 1027 10 16.09344 0 0
5:15 pm 17:15 Cloudy 39 4 36 2 87 87 SE 5 7 30.3 1026 10 16.09344 0 0
5:35 pm 17:35 Cloudy 39 4 36 2 87 87 ESE 5 7 30.3 1026 10 16.09344 0 0
5:55 pm 17:55 Cloudy 39 4 36 2 87 87 SE 6 9 30.3 1026 10 16.09344 0 0
6:15 pm 18:15 Cloudy 39 4 36 2 87 87 ESE 6 9 30.3 1026 10 16.09344 0 0
6:35 pm 18:35 Cloudy 39 4 36 2 87 87 SE 6 9 30.3 1026 10 16.09344 0 0
6:55 pm 18:55 Cloudy 39 4 36 2 87 87 SE 6 9 30.3 1026 10 16.09344 0 0
7:15 pm 19:15 Cloudy 39 4 36 2 87 87 SE 8 13 30.27 1025 10 16.09344 0 0
7:35 pm 19:35 Cloudy 41 5 36 2 81 81 SSE 7 11 30.3 1026 10 16.09344 0 0
7:55 pm 19:55 Cloudy 39 4 36 2 87 87 SSE 7 11 30.3 1026 10 16.09344 0 0
8:15 pm 20:15 Cloudy 39 4 36 2 87 87 SSE 12 19 30.27 1025 10 16.09344 0 0
8:35 pm 20:35 Cloudy 39 4 36 2 87 87 SE 8 13 30.27 1025 10 16.09344 0 0
8:55 pm 20:55 Cloudy 39 4 36 2 87 87 SSE 7 11 30.27 1025 10 16.09344 0 0
9:15 pm 21:15 Cloudy 39 4 36 2 87 87 SSE 8 13 30.27 1025 10 16.09344 0 0
9:35 pm 21:35 Cloudy 37 3 36 2 93 93 SE 6 9 30.27 1025 10 16.09344 0 0
9:55 pm 21:55 Cloudy 37 3 36 2 93 93 SE 6 9 30.27 1025 5 8.04672 0 0
10:15 pm 22:15 Cloudy 37 3 36 2 93 93 SSE 7 11 30.27 1025 7 11.265408 0 0
10:35 pm 22:35 Cloudy 37 3 36 2 93 93 SSE 7 11 30.27 1025 2.5 4.02336 0 0
10:55 pm 22:55 Cloudy 36 2 36 2 100 100 SE 8 13 30.21 1023 2 3.218688 0 0
11:15 pm 23:15 Cloudy 36 2 36 2 100 100 SSE 7 11 30.24 1024 5 8.04672 0 0
11:35 pm 23:35 Cloudy 36 2 36 2 100 100 SSE 7 11 30.21 1023 7 11.265408 0 0
11:55 pm 23:55 Cloudy 36 2 36 2 100 100 SSE 13 20 30.21 1023 4 6.437376 0 0

Powered by AerisWeather